Location: Newark
(25.4297°S, 49.2719°W)
Time: 03:38:54
(UTC+00:00)

Transit 4A - All Passes

Search period start: 21 November 2019 00:00
Search period end: 01 December 2019 00:00
Orbit: 869 x 976 km, 66.8° (Epoch: 20 November)

Date Brightness Start Highest point End Pass type
(mag) Time Alt. Az. Time Alt. Az. Time Alt. Az.
21 Nov - 11:10:45 10° N 11:15:59 35° ENE 11:21:21 10° SE daylight
21 Nov - 12:57:34 10° WNW 13:02:18 25° WSW 13:07:08 10° S daylight
21 Nov - 22:07:14 10° SSW 22:13:41 81° ESE 22:20:04 10° NNE visible
21 Nov - 23:58:26 10° W 23:59:16 10° WNW 00:00:06 10° WNW visible
22 Nov - 11:19:28 10° N 11:25:10 59° ENE 11:31:04 10° SSE daylight
22 Nov - 13:08:26 10° W 13:11:53 16° SW 13:15:23 10° SSW daylight
22 Nov - 20:32:23 10° SSE 20:36:13 16° SE 20:40:02 10° E daylight
22 Nov - 22:16:37 10° SSW 22:22:57 65° WNW 22:29:16 10° N visible
23 Nov - 11:28:36 10° NNW 11:34:26 86° WSW 11:40:30 10° SSE daylight
23 Nov - 20:40:38 10° S 20:45:48 25° ESE 20:50:57 10° ENE daylight
23 Nov - 22:26:16 10° SW 22:32:12 40° WNW 22:38:05 10° N visible
24 Nov - 09:54:50 10° NE 09:58:02 15° ENE 10:01:16 10° ESE daylight
24 Nov - 11:38:06 10° NW 11:43:47 53° WSW 11:49:40 10° SSE daylight
24 Nov - 20:49:21 10° S 20:55:18 39° ESE 21:01:12 10° NE daylight
24 Nov - 22:36:17 10° SW 22:41:22 25° WNW 22:46:26 10° NNW visible
25 Nov - 10:02:26 10° NNE 10:07:09 26° ENE 10:11:56 10° SE daylight
25 Nov - 11:47:59 10° NW 11:53:12 33° WSW 11:58:36 10° S daylight
25 Nov - 20:58:22 10° SSW 21:04:43 61° ESE 21:11:01 10° NE daylight
25 Nov - 22:47:01 10° WSW 22:50:29 15° WNW 22:53:57 10° NW visible
26 Nov - 10:10:50 10° N 10:16:17 42° ENE 10:21:54 10° SE daylight
26 Nov - 11:58:22 10° WNW 12:02:44 21° WSW 12:07:12 10° S daylight
26 Nov - 19:24:44 10° SSE 19:27:02 12° SE 19:29:20 10° ESE daylight
26 Nov - 21:07:36 10° SSW 21:14:03 86° WNW 21:20:27 10° NNE daylight
27 Nov - 10:19:42 10° NNW 10:25:31 70° ENE 10:31:31 10° SSE daylight
27 Nov - 12:09:39 10° W 12:12:21 13° SW 12:15:07 10° SSW daylight
27 Nov - 19:32:17 10° SSE 19:36:42 19° ESE 19:41:06 10° E daylight
27 Nov - 21:17:05 10° SW 21:23:19 55° WNW 21:29:31 10° N daylight
28 Nov - 08:48:53 10° ENE 08:49:14 10° ENE 08:49:36 10° E daylight
28 Nov - 10:28:58 10° NNW 10:34:48 73° WSW 10:40:51 10° SSE daylight
28 Nov - 19:40:45 10° S 19:46:16 29° ESE 19:51:44 10° ENE daylight
28 Nov - 21:26:51 10° SW 21:32:32 34° WNW 21:38:10 10° N daylight
29 Nov - 08:54:25 10° NNE 08:58:19 18° ENE 09:02:16 10° ESE daylight
29 Nov - 10:38:36 10° NW 10:44:10 44° WSW 10:49:57 10° S daylight
29 Nov - 19:49:36 10° S 19:55:44 46° ESE 20:01:48 10° NE daylight
29 Nov - 21:37:03 10° WSW 21:41:41 21° WNW 21:46:17 10° NNW daylight
30 Nov - 09:02:23 10° NNE 09:07:26 31° ENE 09:12:37 10° SE daylight
30 Nov - 10:48:38 10° WNW 10:53:38 28° WSW 10:58:46 10° S daylight
30 Nov - 19:58:41 10° SSW 20:05:07 72° ESE 20:11:28 10° NNE daylight
30 Nov - 21:48:22 10° W 21:50:47 12° WNW 21:53:11 10° NW daylight
